Weather History for Salem, IL

Change the Weather History Date:

Friday, November 4, 2011

  Actual Average Record
Temperature  
Mean Temperature 50 °F -  
Max Temperature 57 °F 56 °F 81 °F (1987)
Min Temperature 42 °F 38 °F 16 °F (1991)
Degree Days  
Heating Degree Days 16    
Moisture  
Dew Point 43 °F    
Average Humidity 78    
Maximum Humidity 93    
Minimum Humidity 58    
Precipitation  
Precipitation 0.00 in - - ()
Sea Level Pressure  
Sea Level Pressure 30.19 in    
Wind  
Wind Speed 10 mph (NNE)    
Max Wind Speed 18 mph    
Max Gust Speed 24 mph    
Visibility 9 miles    
Events      
Averages and records for this station are not official NWS values.
T = Trace of Precipitation, MM = Missing Value Source: NWS Daily Summary

Daily Weather History Graph

Daily Weather History Graph

Search for Another Location

Airport:

Trip Planner

Search our weather history database for the weather conditions in past years. The results will help you decide how hot, cold, wet, or windy it might be!

Date:

Astronomy

Nov. 04, 2011 Rise Set
Actual Time 7:25 AM CDT 5:52 PM CDT
Civil Twilight 6:57 AM CDT 6:20 PM CDT
Nautical Twilight 6:26 AM CDT 6:51 PM CDT
Astronomical Twilight 5:55 AM CDT 7:22 PM CDT
Moon 2:41 PM CDT (11/4) 1:41 AM CDT (11/4)
Length of Visible Light 11h 22m
Length of Day
10h 27m
Waxing Gibbous, 69% of the Moon is Illuminated
Nov 4
Waxing Gibbous
Nov 10
Full
Nov 18
Last Quarter
Nov 25
New
Dec 2
First Quarter

Hourly Weather History & Observations

Time (CDT) Temp. Windchill Dew Point Humidity Pressure Visibility Wind Dir Wind Speed Gust Speed Precip Events Conditions
12:15 AM 50.0 °F - 46.4 °F 87% 30.07 in 7.0 mi North 18.4 mph 23.0 mph N/A   Overcast
12:35 AM 50.0 °F - 46.4 °F 87% 30.08 in 10.0 mi North 16.1 mph 24.2 mph N/A   Overcast
12:55 AM 50.0 °F - 46.4 °F 87% 30.08 in 7.0 mi North 18.4 mph 24.2 mph N/A   Overcast
1:15 AM 50.0 °F - 44.6 °F 82% 30.08 in 10.0 mi NNE 15.0 mph 24.2 mph N/A   Overcast
1:35 AM 50.0 °F - 44.6 °F 82% 30.09 in 10.0 mi NNE 15.0 mph 23.0 mph N/A   Overcast
1:55 AM 50.0 °F - 44.6 °F 82% 30.08 in 10.0 mi NNE 16.1 mph 19.6 mph N/A   Overcast
2:15 AM 50.0 °F - 44.6 °F 82% 30.10 in 10.0 mi North 17.3 mph - N/A   Overcast
2:35 AM 50.0 °F - 44.6 °F 82% 30.10 in 10.0 mi North 15.0 mph 20.7 mph N/A   Overcast
2:55 AM 50.0 °F - 44.6 °F 82% 30.11 in 10.0 mi North 13.8 mph - N/A   Overcast
3:15 AM 50.0 °F - 44.6 °F 82% 30.11 in 10.0 mi NNE 11.5 mph - N/A   Overcast
3:35 AM 50.0 °F - 44.6 °F 82% 30.12 in 10.0 mi NNE 11.5 mph - N/A   Overcast
3:55 AM 48.2 °F - 44.6 °F 87% 30.12 in 10.0 mi NNE 10.4 mph 16.1 mph N/A   Overcast
4:15 AM 48.2 °F - 44.6 °F 87% 30.12 in 10.0 mi NNE 12.7 mph 19.6 mph N/A   Overcast
4:35 AM 48.2 °F - 44.6 °F 87% 30.13 in 10.0 mi North 10.4 mph - N/A   Overcast
4:55 AM 48.2 °F - 44.6 °F 87% 30.15 in 10.0 mi North 11.5 mph - N/A   Overcast
5:15 AM 48.2 °F - 44.6 °F 87% 30.15 in 10.0 mi NNE 9.2 mph - N/A   Overcast
5:35 AM 48.2 °F - 44.6 °F 87% 30.16 in 10.0 mi NNE 8.1 mph - N/A   Overcast
5:55 AM 48.2 °F - 42.8 °F 82% 30.17 in 10.0 mi NNE 9.2 mph - N/A   Overcast
6:15 AM 46.4 °F 41.1 °F 42.8 °F 87% 30.18 in 10.0 mi North 11.5 mph - N/A   Overcast
6:55 AM 46.4 °F 42.9 °F 42.8 °F 87% 30.19 in 10.0 mi North 6.9 mph - N/A   Overcast
7:15 AM 46.4 °F 42.4 °F 42.8 °F 87% 30.20 in 10.0 mi NNE 8.1 mph - N/A   Overcast
7:35 AM 46.4 °F 42.4 °F 42.8 °F 87% 30.20 in 10.0 mi NNE 8.1 mph - N/A   Overcast
7:55 AM 46.4 °F 41.5 °F 42.8 °F 87% 30.21 in 10.0 mi NNE 10.4 mph - N/A   Overcast
8:15 AM 46.4 °F 42.9 °F 42.8 °F 87% 30.22 in 10.0 mi NNE 6.9 mph - N/A   Overcast
8:35 AM 44.6 °F 40.2 °F 42.8 °F 93% 30.22 in 10.0 mi North 8.1 mph - N/A   Overcast
8:55 AM 44.6 °F 41.4 °F 41.0 °F 87% 30.23 in 10.0 mi NNE 5.8 mph - N/A   Overcast
9:15 AM 44.6 °F 39.7 °F 41.0 °F 87% 30.23 in 10.0 mi NE 9.2 mph - N/A   Overcast
9:35 AM 44.6 °F 40.7 °F 41.0 °F 87% 30.24 in 10.0 mi NE 6.9 mph - N/A   Overcast
9:55 AM 46.4 °F 41.9 °F 42.8 °F 87% 30.24 in 10.0 mi NNE 9.2 mph - N/A   Overcast
10:15 AM 46.4 °F 42.9 °F 41.0 °F 81% 30.24 in 10.0 mi NE 6.9 mph - N/A   Overcast
10:35 AM 46.4 °F 42.9 °F 42.8 °F 87% 30.25 in 10.0 mi NNE 6.9 mph - N/A   Overcast
10:55 AM 46.4 °F 41.9 °F 42.8 °F 87% 30.25 in 10.0 mi ENE 9.2 mph - N/A   Overcast
11:15 AM 48.2 °F - 42.8 °F 82% 30.25 in 7.0 mi NE 5.8 mph - N/A   Overcast
11:35 AM 50.0 °F - 44.6 °F 82% 30.25 in 10.0 mi NNE 5.8 mph - N/A   Overcast
11:55 AM 50.0 °F - 44.6 °F 82% 30.25 in 10.0 mi NE 5.8 mph - N/A   Overcast
12:15 PM 50.0 °F - 42.8 °F 76% 30.25 in 10.0 mi East 4.6 mph - N/A   Mostly Cloudy
12:35 PM 51.8 °F - 41.0 °F 67% 30.25 in 10.0 mi East 4.6 mph - N/A   Scattered Clouds
12:55 PM 53.6 °F - 42.8 °F 67% 30.25 in 10.0 mi North 6.9 mph - N/A   Scattered Clouds
1:15 PM 53.6 °F - 42.8 °F 67% 30.23 in 10.0 mi NNE 6.9 mph - N/A   Scattered Clouds
1:35 PM 55.4 °F - 42.8 °F 63% 30.23 in 10.0 mi North 5.8 mph - N/A   Scattered Clouds
1:55 PM 55.4 °F - 42.8 °F 63% 30.22 in 10.0 mi NNE 4.6 mph - N/A   Scattered Clouds
2:15 PM 55.4 °F - 42.8 °F 63% 30.22 in 10.0 mi Calm Calm - N/A   Scattered Clouds
2:35 PM 55.4 °F - 42.8 °F 63% 30.22 in 10.0 mi NNE 3.5 mph - N/A   Scattered Clouds
2:55 PM 55.4 °F - 42.8 °F 63% 30.21 in 7.0 mi Calm Calm - N/A   Scattered Clouds
3:15 PM 57.2 °F - 42.8 °F 59% 30.21 in 7.0 mi ENE 5.8 mph - N/A   Clear
3:35 PM 57.2 °F - 42.8 °F 59% 30.21 in 10.0 mi ENE 4.6 mph - N/A   Clear
3:55 PM 57.2 °F - 42.8 °F 59% 30.21 in 10.0 mi NNE 5.8 mph - N/A   Clear
4:15 PM 57.2 °F - 42.8 °F 59% 30.21 in 10.0 mi NE 3.5 mph - N/A   Clear
4:35 PM 57.2 °F - 42.8 °F 59% 30.21 in 10.0 mi Calm Calm - N/A   Clear
4:55 PM 57.2 °F - 42.8 °F 59% 30.21 in 10.0 mi East 3.5 mph - N/A   Clear
5:15 PM 57.2 °F - 42.8 °F 59% 30.21 in 3.0 mi Calm Calm - N/A   Haze
5:35 PM 55.4 °F - 42.8 °F 63% 30.21 in 10.0 mi ENE 3.5 mph - N/A   Scattered Clouds
5:55 PM 55.4 °F - 41.0 °F 58% 30.21 in 1.2 mi ENE 3.5 mph - N/A   Haze
6:15 PM 53.6 °F - 41.0 °F 62% 30.22 in 5.0 mi Calm Calm - N/A   Haze
6:35 PM 50.0 °F - 42.8 °F 76% 30.23 in 5.0 mi Calm Calm - N/A   Haze
6:55 PM 48.2 °F - 41.0 °F 76% 30.23 in 5.0 mi Calm Calm - N/A   Haze
7:15 PM 46.4 °F - 41.0 °F 81% 30.23 in 4.0 mi Calm Calm - N/A   Haze
7:35 PM 48.2 °F - 41.0 °F 76% 30.23 in 7.0 mi Calm Calm - N/A   Clear
7:55 PM 44.6 °F - 41.0 °F 87% 30.23 in 10.0 mi Calm Calm - N/A   Clear
8:15 PM 42.8 °F - 41.0 °F 93% 30.23 in 10.0 mi Calm Calm - N/A   Clear
8:35 PM 42.8 °F - 41.0 °F 93% 30.23 in 10.0 mi Calm Calm - N/A   Clear
8:55 PM 42.8 °F - 41.0 °F 93% 30.23 in 5.0 mi Calm Calm - N/A   Clear
9:15 PM 44.6 °F - 37.4 °F 76% 30.22 in 7.0 mi Calm Calm - N/A   Clear
9:35 PM 44.6 °F 43.1 °F 35.6 °F 71% 30.23 in 10.0 mi ENE 3.5 mph - N/A   Clear
9:55 PM 46.4 °F - 35.6 °F 66% 30.23 in 10.0 mi Calm Calm - N/A   Clear
10:15 PM 46.4 °F 45.2 °F 35.6 °F 66% 30.23 in 2.0 mi ENE 3.5 mph - N/A   Haze
10:35 PM 46.4 °F 45.2 °F 33.8 °F 62% 30.23 in 1.5 mi East 3.5 mph - N/A   Haze
10:55 PM 46.4 °F 45.2 °F 33.8 °F 62% 30.23 in 1.5 mi East 3.5 mph - N/A   Haze
11:15 PM 46.4 °F - 33.8 °F 62% 30.23 in 5.0 mi Calm Calm - N/A   Haze
11:35 PM 46.4 °F - 33.8 °F 62% 30.23 in 10.0 mi Calm Calm - N/A   Clear
11:55 PM 44.6 °F - 33.8 °F 66% 30.23 in 7.0 mi Calm Calm - N/A   Clear